Meteo Giornale » Osservazioni meteo Italia » Cagliari-Elmas

ore: 16:50 - Osservazioni Meteo Cagliari-Elmas
Lat. 39° 15' N Lon. 9° 4' E Alt. 4 metri s.l.m.

sereno Europe/Rome

17 °C

Sereno

Temp. 24 Ore

5 °C

18 °C

Sud/Sud-Est

13 Km/h

Dew point 7 °C

Umidità 51 %

Visibilità  10 Km

Il sole sorge alle ore 06:15

Il sole tramonta alle ore 18:43

Data e Ora Cielo e Fenomeni T °C DP °C Um. % Pres. hPa Vis. km Vento km/h
Oggi h: 16:50 sereno Sereno 17 7 51 1018 10 S/SE 13
Oggi h: 16:20 sereno Sereno 17 8 55 1018 10 S/SE 11.1
Oggi h: 15:50 sereno Sereno 17 8 55 1019 10 S/SE 13
Oggi h: 15:20 sereno Sereno 17 8 55 1019 10 S 13
Oggi h: 14:50 sereno Sereno 18 6 45 1019 10 S/SE 13
Oggi h: 14:20 sereno Sereno 17 7 51 1019 10 S/SE 13
Oggi h: 13:50 sereno Sereno 18 5 42 1020 10 S/SE 14.8
Oggi h: 13:20 sereno Sereno 18 5 42 1020 10 S 13
Oggi h: 12:50 sereno Sereno 18 4 39 1021 10 SE 13
Oggi h: 12:20 sereno Sereno 17 5 45 1021 10 E/SE 13
Oggi h: 11:50 sereno Sereno 17 4 41 1022 10 S/SE 9.3
Oggi h: 11:20 sereno Sereno 15 6 54 1022 10 E/SE 9.3
Oggi h: 10:50 sereno Sereno 15 7 58 1022 10 N 5.5
Oggi h: 10:20 sereno Sereno 15 8 62 1022 10 N 3.7
Oggi h: 09:50 sereno Sereno 13 8 71 1022 10 N 5.5
Oggi h: 09:20 sereno Sereno 11 7 76 1022 10 N 9.3
Oggi h: 08:50 sereno Sereno 10 7 81 1022 10 N 11.1
Oggi h: 08:20 sereno Sereno 9 7 87 1022 10 N/NO 11.1
Oggi h: 07:50 sereno Sereno 7 6 93 1021 10 N 5.5
Oggi h: 07:20 sereno Sereno 6 5 93 1021 10 N 7.4
Oggi h: 06:50 sereno Sereno 5 5 100 1021 10 N/NO 9.3
Oggi h: 06:20 sereno Sereno 5 4 93 1021 10 N 3.7
Oggi h: 05:50 sereno Sereno 5 4 93 1021 10 N/NO 7.4
Oggi h: 05:20 sereno Sereno 5 4 93 1021 10 N/NO 9.3
Oggi h: 04:50 sereno Sereno 6 5 93 1021 10 N/NO 11.1
Oggi h: 04:20 sereno Sereno 6 5 93 1021 10 NO 9.3
Oggi h: 03:50 sereno Sereno 6 5 93 1022 10 N/NO 9.3
Oggi h: 03:20 sereno Sereno 6 5 93 1022 10 N 11.1
Oggi h: 03:50 sereno Sereno 7 6 93 1022 10 N 13
Oggi h: 03:20 sereno Sereno 7 7 100 1022 10 NO 13
Oggi h: 01:50 sereno Sereno 7 6 93 1022 10 NO 14.8
Oggi h: 01:20 sereno Sereno 7 6 93 1022 10 N/NO 14.8
Oggi h: 00:50 sereno Sereno 7 6 93 1022 10 N/NO 7.4
Oggi h: 00:20 sereno Sereno 8 6 87 1022 10 N/NO 9.3
Ieri h: 23:50 sereno Sereno 8 6 87 1022 10 N/NO 11.1
Ieri h: 23:20 sereno Sereno 8 7 93 1022 10 N 11.1
Ieri h: 22:50 sereno Sereno 9 7 87 1022 10 N/NO 9.3
Ieri h: 22:20 sereno Sereno 10 7 81 1022 10 N/NO 7.4
Ieri h: 21:50 sereno Sereno 11 8 81 1022 10 NO 13
Ieri h: 21:20 sereno Sereno 11 8 81 1022 10 NO 14.8
Ieri h: 20:50 sereno Sereno 11 7 76 1022 10 N/NO 9.3
Ieri h: 20:20 sereno Sereno 11 8 81 1021 10 N/NO 11.1
Ieri h: 19:50 sereno Sereno 12 8 76 1021 10 N/NO 13
Ieri h: 19:20 poco_nuvoloso Poco Nuvoloso 13 8 71 1021 10 N/NO 13
Ieri h: 18:50 nuvoloso Nuvoloso 14 8 67 1021 10 N/NO 14.8